Time,TemperatureF,DewpointF,PressureIn,WindDirection,WindDirectionDegrees,WindSpeedMPH,WindSpeedGustMPH,Humidity,HourlyPrecipIn,Conditions,Clouds,dailyrainin,SolarRadiationWatts/m^2,SoftwareType,DateUTC
2013-07-10 00:11:00,63.0,34.0,-100.00,NE,46,8.0,11.0,34,0.00,,,0.00,0.000000,,2013-07-10 06:11:00,
2013-07-10 00:21:00,63.0,34.0,-100.00,NE,46,8.0,11.0,34,0.00,,,0.00,0.000000,,2013-07-10 06:21:00,
2013-07-10 00:32:00,63.0,34.0,-100.00,NE,46,8.0,11.0,34,0.00,,,0.00,0.000000,,2013-07-10 06:32:00,
2013-07-10 00:42:00,63.0,34.0,-100.00,NE,46,8.0,11.0,34,0.00,,,0.00,0.000000,,2013-07-10 06:42:00,
2013-07-10 01:11:00,62.0,33.0,-100.00,SSW,209,4.0,11.0,34,0.00,,,0.00,0.000000,,2013-07-10 07:11:00,
2013-07-10 01:22:00,62.0,33.0,-100.00,SSW,209,4.0,11.0,34,0.00,,,0.00,0.000000,,2013-07-10 07:22:00,
2013-07-10 01:33:00,62.0,33.0,-100.00,SSW,209,4.0,11.0,34,0.00,,,0.00,0.000000,,2013-07-10 07:33:00,
2013-07-10 01:43:00,62.0,33.0,-100.00,SSW,209,4.0,11.0,34,0.00,,,0.00,0.000000,,2013-07-10 07:43:00,
2013-07-10 02:11:00,61.0,31.0,-100.00,SSW,207,7.0,10.0,32,0.00,,,0.00,0.000000,,2013-07-10 08:11:00,
2013-07-10 02:23:00,61.0,31.0,-100.00,SSW,207,7.0,10.0,32,0.00,,,0.00,0.000000,,2013-07-10 08:23:00,
2013-07-10 02:33:00,61.0,31.0,-100.00,SSW,207,7.0,10.0,32,0.00,,,0.00,0.000000,,2013-07-10 08:33:00,
2013-07-10 02:42:00,61.0,31.0,-100.00,SSW,207,7.0,10.0,32,0.00,,,0.00,0.000000,,2013-07-10 08:42:00,
2013-07-10 03:12:00,58.0,31.0,-100.00,SSW,211,7.0,10.0,35,0.00,,,0.00,0.000000,,2013-07-10 09:12:00,
2013-07-10 03:22:00,58.0,31.0,-100.00,SSW,211,7.0,10.0,35,0.00,,,0.00,0.000000,,2013-07-10 09:22:00,
2013-07-10 03:32:00,58.0,31.0,-100.00,SSW,211,7.0,10.0,35,0.00,,,0.00,0.000000,,2013-07-10 09:32:00,
2013-07-10 03:42:00,58.0,31.0,-100.00,SSW,211,7.0,10.0,35,0.00,,,0.00,0.000000,,2013-07-10 09:42:00,
2013-07-10 03:48:00,-999.0,-99.9,-100.00,East,85,0.0,9.0,-999,-99.99,,,-99.99,0.000000,,2013-07-10 09:48:00,
2013-07-10 04:13:00,58.0,34.0,-100.00,East,85,0.0,9.0,41,0.00,,,0.00,0.000000,,2013-07-10 10:13:00,
2013-07-10 04:23:00,58.0,34.0,-100.00,East,85,0.0,9.0,41,0.00,,,0.00,0.000000,,2013-07-10 10:23:00,
2013-07-10 04:32:00,58.0,34.0,-100.00,East,85,0.0,9.0,41,0.00,,,0.00,0.000000,,2013-07-10 10:32:00,
2013-07-10 05:11:00,58.0,33.0,-100.00,West,270,0.0,6.0,39,0.00,,,0.00,0.000000,,2013-07-10 11:11:00,
2013-07-10 05:22:00,58.0,33.0,-100.00,West,270,0.0,6.0,39,0.00,,,0.00,0.000000,,2013-07-10 11:22:00,
2013-07-10 05:33:00,58.0,33.0,-100.00,West,270,0.0,6.0,39,0.00,,,0.00,0.000000,,2013-07-10 11:33:00,
2013-07-10 05:43:00,58.0,33.0,-100.00,West,270,0.0,6.0,39,0.00,,,0.00,0.000000,,2013-07-10 11:43:00,
2013-07-10 08:11:00,59.0,38.0,-100.00,East,90,4.0,8.0,45,-99.99,,,0.00,94.000000,,2013-07-10 14:11:00,
2013-07-10 08:22:00,59.0,38.0,-100.00,East,90,4.0,8.0,45,-99.99,,,0.00,94.000000,,2013-07-10 14:22:00,
2013-07-10 08:33:00,59.0,38.0,-100.00,East,90,4.0,8.0,45,-99.99,,,0.00,94.000000,,2013-07-10 14:33:00,
2013-07-10 08:43:00,59.0,38.0,-100.00,East,90,4.0,8.0,45,-99.99,,,0.00,94.000000,,2013-07-10 14:43:00,
2013-07-10 09:11:00,55.0,39.0,-100.00,NW,314,5.0,9.0,55,0.00,,,0.00,87.000000,,2013-07-10 15:11:00,
2013-07-10 09:22:00,55.0,39.0,-100.00,NW,314,5.0,9.0,55,0.00,,,0.00,87.000000,,2013-07-10 15:22:00,
2013-07-10 10:11:00,67.0,41.0,-100.00,ENE,68,4.0,6.0,39,-99.99,,,0.00,374.000000,,2013-07-10 16:11:00,
2013-07-10 10:22:00,67.0,41.0,-100.00,ENE,68,4.0,6.0,39,-99.99,,,0.00,374.000000,,2013-07-10 16:22:00,
2013-07-10 10:33:00,67.0,41.0,-100.00,ENE,68,4.0,6.0,39,-99.99,,,0.00,374.000000,,2013-07-10 16:33:00,
2013-07-10 10:44:00,67.0,41.0,-100.00,ENE,68,4.0,6.0,39,-99.99,,,0.00,374.000000,,2013-07-10 16:44:00,
2013-07-10 11:11:00,73.0,42.0,-100.00,ENE,77,6.0,11.0,33,0.00,,,0.00,756.000000,,2013-07-10 17:11:00,
2013-07-10 11:23:00,73.0,42.0,-100.00,ENE,77,6.0,11.0,33,0.00,,,0.00,756.000000,,2013-07-10 17:23:00,
2013-07-10 11:32:00,73.0,42.0,-100.00,ENE,77,6.0,11.0,33,0.00,,,0.00,756.000000,,2013-07-10 17:32:00,
2013-07-10 11:43:00,73.0,42.0,-100.00,ENE,77,6.0,11.0,33,0.00,,,0.00,756.000000,,2013-07-10 17:43:00,
2013-07-10 12:11:00,79.0,39.0,-100.00,NNE,32,4.0,11.0,24,0.00,,,0.00,1097.000000,,2013-07-10 18:11:00,
2013-07-10 12:21:00,79.0,39.0,-100.00,NNE,32,4.0,11.0,24,0.00,,,0.00,1097.000000,,2013-07-10 18:21:00,
2013-07-10 12:32:00,79.0,39.0,-100.00,NNE,32,4.0,11.0,24,0.00,,,0.00,1097.000000,,2013-07-10 18:32:00,
2013-07-10 12:44:00,79.0,39.0,-100.00,NNE,32,4.0,11.0,24,0.00,,,0.00,1097.000000,,2013-07-10 18:44:00,
2013-07-10 13:11:00,82.0,34.0,-100.00,WNW,285,4.0,12.0,18,0.00,,,0.00,1183.000000,,2013-07-10 19:11:00,
2013-07-10 13:21:00,82.0,34.0,-100.00,WNW,285,4.0,12.0,18,0.00,,,0.00,1183.000000,,2013-07-10 19:21:00,
2013-07-10 13:32:00,82.0,34.0,-100.00,WNW,285,4.0,12.0,18,0.00,,,0.00,1183.000000,,2013-07-10 19:32:00,
2013-07-10 13:42:00,82.0,34.0,-100.00,WNW,285,4.0,12.0,18,0.00,,,0.00,1183.000000,,2013-07-10 19:42:00,
2013-07-10 14:11:00,79.0,39.0,-100.00,SSW,193,12.0,20.0,24,0.00,,,0.00,827.000000,,2013-07-10 20:11:00,
2013-07-10 14:22:00,79.0,39.0,-100.00,SSW,193,12.0,20.0,24,0.00,,,0.00,827.000000,,2013-07-10 20:22:00,
2013-07-10 14:32:00,79.0,39.0,-100.00,SSW,193,12.0,20.0,24,0.00,,,0.00,827.000000,,2013-07-10 20:32:00,
2013-07-10 14:43:00,79.0,39.0,-100.00,SSW,193,12.0,20.0,24,0.00,,,0.00,827.000000,,2013-07-10 20:43:00,
2013-07-10 15:11:00,79.0,34.0,-100.00,WNW,286,2.0,13.0,20,0.00,,,0.00,832.000000,,2013-07-10 21:11:00,
2013-07-10 15:22:00,79.0,34.0,-100.00,WNW,286,2.0,13.0,20,0.00,,,0.00,832.000000,,2013-07-10 21:22:00,
2013-07-10 15:32:00,79.0,34.0,-100.00,WNW,286,2.0,13.0,20,0.00,,,0.00,832.000000,,2013-07-10 21:32:00,
2013-07-10 15:41:00,79.0,34.0,-100.00,WNW,286,2.0,13.0,20,0.00,,,0.00,832.000000,,2013-07-10 21:41:00,
2013-07-10 16:11:00,77.0,38.0,-100.00,SW,214,16.0,29.0,25,0.00,,,0.00,447.000000,,2013-07-10 22:11:00,
2013-07-10 16:21:00,77.0,38.0,-100.00,SW,214,16.0,29.0,25,0.00,,,0.00,447.000000,,2013-07-10 22:21:00,
2013-07-10 16:33:00,77.0,38.0,-100.00,SW,214,16.0,29.0,25,0.00,,,0.00,447.000000,,2013-07-10 22:33:00,
2013-07-10 16:42:00,77.0,38.0,-100.00,SW,214,16.0,29.0,25,0.00,,,0.00,447.000000,,2013-07-10 22:42:00,
2013-07-10 17:11:00,78.0,40.0,-100.00,SSW,196,14.0,28.0,26,0.00,,,0.00,558.000000,,2013-07-10 23:11:00,
2013-07-10 17:22:00,78.0,40.0,-100.00,SSW,196,14.0,28.0,26,0.00,,,0.00,558.000000,,2013-07-10 23:22:00,
2013-07-10 17:32:00,78.0,40.0,-100.00,SSW,196,14.0,28.0,26,0.00,,,0.00,558.000000,,2013-07-10 23:32:00,
2013-07-10 17:43:00,78.0,40.0,-100.00,SSW,196,14.0,28.0,26,0.00,,,0.00,558.000000,,2013-07-10 23:43:00,
2013-07-10 18:11:00,80.0,37.0,-100.00,SW,227,7.0,20.0,21,0.00,,,0.00,721.000000,,2013-07-11 00:11:00,
2013-07-10 18:22:00,80.0,37.0,-100.00,SW,227,7.0,20.0,21,0.00,,,0.00,721.000000,,2013-07-11 00:22:00,
2013-07-10 18:32:00,80.0,37.0,-100.00,SW,227,7.0,20.0,21,0.00,,,0.00,721.000000,,2013-07-11 00:32:00,
2013-07-10 18:42:00,80.0,37.0,-100.00,SW,227,7.0,20.0,21,0.00,,,0.00,721.000000,,2013-07-11 00:42:00,
2013-07-10 19:11:00,80.0,33.0,-100.00,NW,312,7.0,18.0,18,0.00,,,0.00,341.000000,,2013-07-11 01:11:00,
2013-07-10 19:22:00,80.0,33.0,-100.00,NW,312,7.0,18.0,18,0.00,,,0.00,341.000000,,2013-07-11 01:22:00,
2013-07-10 19:32:00,80.0,33.0,-100.00,NW,312,7.0,18.0,18,0.00,,,0.00,341.000000,,2013-07-11 01:32:00,
2013-07-10 19:43:00,80.0,33.0,-100.00,NW,312,7.0,18.0,18,0.00,,,0.00,341.000000,,2013-07-11 01:43:00,
2013-07-10 20:11:00,78.0,31.0,-100.00,ESE,116,4.0,16.0,18,0.00,,,0.00,88.000000,,2013-07-11 02:11:00,
2013-07-10 20:22:00,78.0,31.0,-100.00,ESE,116,4.0,16.0,18,0.00,,,0.00,88.000000,,2013-07-11 02:22:00,
2013-07-10 20:32:00,78.0,31.0,-100.00,ESE,116,4.0,16.0,18,0.00,,,0.00,88.000000,,2013-07-11 02:32:00,
2013-07-10 20:43:00,78.0,31.0,-100.00,ESE,116,4.0,16.0,18,0.00,,,0.00,88.000000,,2013-07-11 02:43:00,
2013-07-10 21:11:00,72.0,30.0,-100.00,NW,312,4.0,10.0,21,-99.99,,,0.00,39.000000,,2013-07-11 03:11:00,
2013-07-10 21:21:00,72.0,30.0,-100.00,NW,312,4.0,10.0,21,-99.99,,,0.00,39.000000,,2013-07-11 03:21:00,
2013-07-10 21:42:00,72.0,30.0,-100.00,NW,312,4.0,10.0,21,-99.99,,,0.00,39.000000,,2013-07-11 03:42:00,
2013-07-10 22:12:00,68.0,35.0,-100.00,South,184,11.0,20.0,30,-99.99,,,0.00,0.000000,,2013-07-11 04:12:00,
2013-07-10 22:22:00,68.0,35.0,-100.00,South,184,11.0,20.0,30,-99.99,,,0.00,0.000000,,2013-07-11 04:22:00,
2013-07-10 22:32:00,68.0,35.0,-100.00,South,184,11.0,20.0,30,-99.99,,,0.00,0.000000,,2013-07-11 04:32:00,
2013-07-10 22:42:00,68.0,35.0,-100.00,South,184,11.0,20.0,30,-99.99,,,0.00,0.000000,,2013-07-11 04:42:00,
2013-07-10 23:12:00,64.0,42.0,-100.00,SW,220,14.0,19.0,44,0.00,,,0.00,0.000000,,2013-07-11 05:12:00,
2013-07-10 23:22:00,64.0,42.0,-100.00,SW,220,14.0,19.0,44,0.00,,,0.00,0.000000,,2013-07-11 05:22:00,
2013-07-10 23:32:00,64.0,42.0,-100.00,SW,220,14.0,19.0,44,0.00,,,0.00,0.000000,,2013-07-11 05:32:00,
2013-07-10 23:43:00,64.0,42.0,-100.00,SW,220,14.0,19.0,44,0.00,,,0.00,0.000000,,2013-07-11 05:43:00,